EW6466 Weather Reports


Display with metric or nautical units.
time (UTC)temp
F
wind
direction
speed
MPH
gust
MPH
rain 1hr
in
rain 24hr
in
rain mn
in
humidity
%
barometer
mb
20260905024524 82 25 3.0 8.0 0.00 0.00 0.00 65 1010.7
20260905023023 82 22 4.0 8.0 0.00 0.00 0.00 63 1010.4
20260905021524 82 30 3.0 5.0 0.00 0.00 0.00 61 1010.1
20260905020021 83 34 1.0 3.0 0.00 0.00 0.00 60 1010.1
20260905014520 83 35 0.0 3.0 0.00 0.00 0.00 61 1009.9
20260905013020 84 35 2.0 6.0 0.00 0.00 0.00 60 1009.9
20260905011521 84 63 3.0 9.0 0.00 0.00 0.00 58 1009.6
20260905010020 85 48 3.0 6.0 0.00 0.00 0.00 52 1009.7
20260905004520 86 34 3.0 9.0 0.00 0.00 0.00 52 1009.7
20260905003022 87 38 3.0 9.0 0.00 0.00 0.00 52 1009.7
20260905001519 87 42 1.0 6.0 0.00 0.00 0.00 51 1009.9
20260905000021 88 40 2.0 6.0 0.00 0.00 0.00 54 1009.8
20260904234516 87 96 2.0 9.0 0.00 0.00 0.00 55 1009.7
20260904233017 88 83 5.0 12.0 0.00 0.00 0.00 56 1009.5
20260904231518 88 124 4.0 9.0 0.00 0.00 0.00 51 1009.3
20260904230017 88 69 5.0 12.0 0.00 0.00 0.00 51 1009.2
20260904224514 88 106 4.0 10.0 0.00 0.00 0.00 50 1009.2
20260904223011 88 87 4.0 13.0 0.00 0.00 0.00 55 1009.1
20260904221511 89 73 3.0 11.0 0.00 0.00 0.00 58 1009.1
20260904220010 88 90 2.0 13.0 0.00 0.00 0.00 58 1009.1
20260904214509 88 122 4.0 12.0 0.00 0.00 0.00 58 1009.4
20260904213008 88 105 4.0 14.0 0.00 0.00 0.00 57 1009.4
20260904211507 88 89 3.0 13.0 0.00 0.00 0.00 57 1009.6
20260904210010 88 101 4.0 12.0 0.00 0.00 0.00 55 1009.9
20260904204506 88 71 5.0 9.0 0.00 0.00 0.00 56 1010.0
20260904203004 88 80 3.0 12.0 0.00 0.00 0.00 57 1010.2
20260904201503 88 116 7.0 15.0 0.00 0.00 0.00 56 1010.1
20260904200004 89 60 3.0 9.0 0.00 0.00 0.00 57 1010.1
20260904194502 89 73 3.0 7.0 0.00 0.00 0.00 56 1010.3
20260904193059 89 196 1.0 5.0 0.00 0.00 0.00 58 1010.3
20260904191658 88 190 2.0 8.0 0.00 0.00 0.00 59 1010.5
20260904190059 88 162 5.0 10.0 0.00 0.00 0.00 58 1010.7
20260904184604 88 201 3.0 8.0 0.00 0.00 0.00 58 1010.7
20260904183055 88 138 3.0 9.0 0.00 0.00 0.00 58 1010.9
20260904181554 87 197 3.0 9.0 0.00 0.00 0.00 60 1011.0
20260904180054 87 150 3.0 10.0 0.00 0.00 0.00 60 1011.3
20260904174553 87 110 3.0 8.0 0.00 0.00 0.00 59 1011.3
20260904173104 87 78 1.0 10.0 0.00 0.00 0.00 61 1011.4
20260904171552 88 40 2.0 11.0 0.00 0.00 0.00 60 1011.5
20260904170050 89 69 7.0 13.0 0.00 0.00 0.00 58 1011.6
20260904164550 88 140 4.0 10.0 0.00 0.00 0.00 59 1011.8
20260904163044 85 212 3.0 7.0 0.00 0.00 0.00 66 1011.8
20260904161541 84 207 2.0 8.0 0.00 0.00 0.00 68 1011.7
20260904160046 82 81 3.0 7.0 0.00 0.00 0.00 72 1011.6
20260904154539 82 32 2.0 7.0 0.00 0.00 0.00 72 1011.5
20260904153038 82 171 3.0 11.0 0.00 0.00 0.00 70 1011.5
20260904151538 83 211 4.0 10.0 0.00 0.00 0.00 69 1011.4
20260904150034 81 140 2.0 9.0 0.00 0.00 0.00 75 1011.4
20260904144533 82 198 2.0 8.0 0.00 0.00 0.00 73 1011.4
20260904143036 82 177 5.0 8.0 0.00 0.00 0.00 75 1011.4
20260904141531 79 189 1.0 9.0 0.00 0.00 0.00 80 1011.3
20260904140030 78 187 4.0 11.0 0.00 0.00 0.00 82 1011.3
20260904134537 77 156 4.0 7.0 0.00 0.00 0.00 83 1011.1
20260904133027 76 198 1.0 10.0 0.00 0.00 0.00 84 1011.0
20260904131524 76 202 1.0 10.0 0.00 0.00 0.00 84 1010.9
20260904130023 76 222 4.0 9.0 0.00 0.00 0.00 84 1010.6
20260904124522 75 180 1.0 6.0 0.00 0.00 0.00 84 1010.4
20260904123021 75 207 2.0 5.0 0.00 0.00 0.00 84 1010.2
20260904121521 75 166 3.0 6.0 0.00 0.00 0.00 84 1009.8
20260904120021 76 175 2.0 7.0 0.00 0.00 0.00 84 1009.8
20260904114518 76 188 5.0 11.0 0.00 0.00 0.00 84 1009.8
20260904113017 76 182 2.0 7.0 0.00 0.00 0.00 84 1009.7
20260904111618 76 144 2.0 10.0 0.00 0.00 0.00 83 1009.8
20260904110016 76 170 2.0 7.0 0.00 0.00 0.00 83 1009.8
20260904104514 76 158 5.0 9.0 0.00 0.00 0.00 83 1009.8
20260904103013 76 177 3.0 6.0 0.00 0.00 0.00 83 1009.8
20260904101512 76 182 2.0 7.0 0.00 0.00 0.00 82 1009.7
20260904100011 76 144 3.0 7.0 0.00 0.00 0.00 82 1009.8
20260904094521 76 135 3.0 12.0 0.00 0.00 0.00 82 1009.8
20260904093008 76 180 4.0 9.0 0.00 0.00 0.00 82 1009.8
20260904091509 76 165 4.0 8.0 0.00 0.00 0.00 82 1009.8
20260904090021 76 178 5.0 14.0 0.00 0.00 0.00 82 1009.8
20260904084504 76 170 5.0 10.0 0.00 0.00 0.00 82 1010.0
20260904083003 76 180 4.0 8.0 0.00 0.00 0.00 82 1010.1
20260904081505 76 181 4.0 11.0 0.00 0.00 0.00 82 1010.1
20260904080101 76 208 2.0 7.0 0.00 0.00 0.00 81 1009.8
20260904074558 77 216 3.0 6.0 0.00 0.00 0.00 80 1010.0
20260904073100 77 204 3.0 9.0 0.00 0.00 0.00 80 1010.0
20260904071617 77 155 2.0 10.0 0.00 0.00 0.00 78 1010.3
20260904070113 78 32 3.0 7.0 0.00 0.00 0.00 77 1010.4
20260904064550 78 22 4.0 9.0 0.00 0.00 0.00 75 1010.3
20260904063100 78 14 2.0 12.0 0.00 0.00 0.00 73 1010.3
20260904061545 79 246 3.0 17.0 0.00 0.00 0.00 71 1010.3
20260904060141 79 207 3.0 12.0 0.00 0.00 0.00 68 1010.3
20260904054547 80 360 3.0 10.0 0.00 0.00 0.00 63 1010.5
20260904053051 81 75 5.0 13.0 0.00 0.00 0.00 61 1010.3
20260904051539 82 164 4.0 9.0 0.00 0.00 0.00 60 1010.0
20260904050036 82 217 5.0 16.0 0.00 0.00 0.00 60 1009.9
20260904044528 83 274 9.0 16.0 0.00 0.00 0.00 60 1009.9
20260904043034 84 226 4.0 14.0 0.00 0.00 0.00 59 1009.9
20260904041527 84 97 5.0 11.0 0.00 0.00 0.00 59 1009.9
20260904040026 85 64 4.0 11.0 0.00 0.00 0.00 59 1009.8
20260904034526 85 40 4.0 12.0 0.00 0.00 0.00 58 1009.7
20260904033028 85 60 5.0 14.0 0.00 0.00 0.00 57 1009.6
20260904031534 86 80 8.0 15.0 0.00 0.00 0.00 55 1009.6
20260904030026 87 80 6.0 21.0 0.00 0.00 0.00 53 1009.2